| time (UTC) | temp F | wind direction | speed MPH | gust MPH | rain 1hr in | rain 24hr in | rain mn in | humidity % | barometer mb |
| 20260903124551 | 75 | 202 | 0.0 | 0.0 | 0.00 | 0.00 | 0.00 | 87 | 1014.5 |
| 20260903123001 | 75 | 203 | 0.0 | 0.0 | 0.00 | 0.00 | 0.00 | 86 | 1014.4 |
| 20260903121524 | 75 | 203 | 0.0 | 0.0 | 0.00 | 0.00 | 0.00 | 86 | 1014.2 |
| 20260903120027 | 75 | 203 | 0.0 | 0.0 | 0.00 | 0.00 | 0.00 | 85 | 1014.0 |
| 20260903114540 | 75 | 203 | 0.0 | 0.0 | 0.00 | 0.00 | 0.00 | 84 | 1013.9 |
| 20260903113053 | 75 | 203 | 0.0 | 0.0 | 0.00 | 0.00 | 0.00 | 84 | 1013.8 |
| 20260903111503 | 76 | 203 | 0.0 | 0.0 | 0.00 | 0.00 | 0.00 | 84 | 1013.6 |
| 20260903110018 | 76 | 203 | 0.0 | 0.0 | 0.00 | 0.00 | 0.00 | 83 | 1013.5 |
| 20260903104530 | 76 | 203 | 0.0 | 0.0 | 0.00 | 0.00 | 0.00 | 83 | 1013.4 |
| 20260903103043 | 76 | 203 | 0.0 | 0.0 | 0.00 | 0.00 | 0.00 | 82 | 1013.4 |
| 20260903101600 | 76 | 203 | 0.0 | 0.0 | 0.00 | 0.00 | 0.00 | 82 | 1013.3 |
| 20260903100006 | 77 | 202 | 0.0 | 0.0 | 0.00 | 0.00 | 0.00 | 82 | 1013.3 |
| 20260903094520 | 77 | 203 | 0.0 | 0.0 | 0.00 | 0.00 | 0.00 | 81 | 1013.2 |
| 20260903093041 | 77 | 203 | 0.0 | 0.0 | 0.00 | 0.00 | 0.00 | 80 | 1013.2 |
| 20260903091543 | 77 | 203 | 0.0 | 0.0 | 0.00 | 0.00 | 0.00 | 79 | 1013.1 |
| 20260903090056 | 78 | 203 | 0.0 | 0.0 | 0.00 | 0.00 | 0.00 | 79 | 1013.1 |
| 20260903084517 | 78 | 203 | 0.0 | 1.0 | 0.00 | 0.00 | 0.00 | 80 | 1013.1 |
| 20260903083019 | 78 | 203 | 0.0 | 0.0 | 0.00 | 0.00 | 0.00 | 79 | 1013.0 |
| 20260903081532 | 78 | 203 | 0.0 | 0.0 | 0.00 | 0.00 | 0.00 | 78 | 1012.9 |
| 20260903080050 | 78 | 203 | 0.0 | 0.0 | 0.00 | 0.00 | 0.00 | 78 | 1012.9 |
| 20260903074559 | 79 | 203 | 0.0 | 0.0 | 0.00 | 0.00 | 0.00 | 77 | 1012.8 |
| 20260903073009 | 79 | 203 | 0.0 | 0.0 | 0.00 | 0.00 | 0.00 | 78 | 1012.8 |
| 20260903071522 | 78 | 203 | 0.0 | 0.0 | 0.00 | 0.00 | 0.00 | 76 | 1012.9 |
| 20260903070035 | 78 | 203 | 0.0 | 0.0 | 0.00 | 0.00 | 0.00 | 77 | 1013.0 |
| 20260903064549 | 78 | 203 | 0.0 | 0.0 | 0.00 | 0.00 | 0.00 | 78 | 1013.0 |
| 20260903063103 | 78 | 203 | 0.0 | 0.0 | 0.00 | 0.00 | 0.00 | 78 | 1013.0 |
| 20260903061520 | 78 | 203 | 0.0 | 0.0 | 0.00 | 0.00 | 0.00 | 79 | 1013.1 |
| 20260903060025 | 79 | 203 | 0.0 | 0.0 | 0.00 | 0.00 | 0.00 | 79 | 1013.2 |
| 20260903054541 | 79 | 203 | 0.0 | 0.0 | 0.00 | 0.00 | 0.00 | 77 | 1013.1 |
| 20260903053052 | 79 | 203 | 0.0 | 0.0 | 0.00 | 0.00 | 0.00 | 77 | 1013.1 |
| 20260903051501 | 80 | 203 | 0.0 | 0.0 | 0.00 | 0.00 | 0.00 | 77 | 1013.0 |
| 20260903050015 | 80 | 203 | 0.0 | 0.0 | 0.00 | 0.00 | 0.00 | 77 | 1013.1 |
| 20260903044529 | 80 | 203 | 0.0 | 0.0 | 0.00 | 0.00 | 0.00 | 76 | 1013.0 |
| 20260903043044 | 81 | 203 | 0.0 | 0.0 | 0.00 | 0.00 | 0.00 | 77 | 1012.9 |
| 20260903041602 | 81 | 201 | 0.0 | 0.0 | 0.00 | 0.00 | 0.00 | 75 | 1012.9 |
| 20260903040008 | 81 | 203 | 0.0 | 2.0 | 0.00 | 0.00 | 0.00 | 74 | 1013.0 |
| 20260903034527 | 82 | 200 | 0.0 | 0.0 | 0.00 | 0.00 | 0.00 | 71 | 1012.9 |
| 20260903033032 | 82 | 199 | 0.0 | 0.0 | 0.00 | 0.00 | 0.00 | 70 | 1013.0 |
| 20260903031548 | 83 | 199 | 0.0 | 0.0 | 0.00 | 0.00 | 0.00 | 69 | 1013.1 |
| 20260903030058 | 83 | 199 | 0.0 | 0.0 | 0.00 | 0.00 | 0.00 | 69 | 1013.1 |
| 20260903024508 | 84 | 199 | 0.0 | 0.0 | 0.00 | 0.00 | 0.00 | 68 | 1013.0 |
| 20260903023021 | 84 | 199 | 0.0 | 0.0 | 0.00 | 0.00 | 0.00 | 67 | 1012.9 |
| 20260903021535 | 85 | 199 | 0.0 | 0.0 | 0.00 | 0.00 | 0.00 | 66 | 1012.8 |
| 20260903020054 | 85 | 199 | 0.0 | 0.0 | 0.00 | 0.00 | 0.00 | 64 | 1012.7 |
| 20260903014604 | 86 | 199 | 0.0 | 0.0 | 0.00 | 0.00 | 0.00 | 64 | 1012.4 |
| 20260903013013 | 86 | 199 | 0.0 | 0.0 | 0.00 | 0.00 | 0.00 | 62 | 1012.2 |
| 20260903011528 | 87 | 199 | 0.0 | 0.0 | 0.00 | 0.00 | 0.00 | 60 | 1012.2 |
| 20260903010042 | 88 | 199 | 0.0 | 0.0 | 0.00 | 0.00 | 0.00 | 60 | 1012.1 |
| 20260903004556 | 88 | 199 | 0.0 | 0.0 | 0.00 | 0.00 | 0.00 | 58 | 1012.0 |
| 20260903003008 | 89 | 199 | 0.0 | 0.0 | 0.00 | 0.00 | 0.00 | 56 | 1012.0 |
| 20260903001520 | 90 | 199 | 0.0 | 0.0 | 0.00 | 0.00 | 0.00 | 56 | 1012.0 |
| 20260903000034 | 90 | 199 | 0.0 | 0.0 | 0.00 | 0.00 | 0.00 | 55 | 1012.1 |
| 20260902234559 | 91 | 199 | 0.0 | 0.0 | 0.00 | 0.00 | 0.00 | 54 | 1012.1 |
| 20260902233100 | 92 | 199 | 0.0 | 0.0 | 0.00 | 0.00 | 0.00 | 53 | 1012.1 |
| 20260902231515 | 93 | 199 | 0.0 | 0.0 | 0.00 | 0.00 | 0.00 | 52 | 1012.2 |
| 20260902230023 | 93 | 199 | 0.0 | 0.0 | 0.00 | 0.00 | 0.00 | 50 | 1012.2 |
| 20260902224537 | 94 | 199 | 0.0 | 0.0 | 0.00 | 0.00 | 0.00 | 50 | 1012.2 |
| 20260902223055 | 94 | 199 | 0.0 | 1.0 | 0.00 | 0.00 | 0.00 | 50 | 1012.3 |
| 20260902221605 | 94 | 195 | 0.0 | 2.0 | 0.00 | 0.00 | 0.00 | 50 | 1012.3 |
| 20260902220020 | 94 | 195 | 0.0 | 2.0 | 0.00 | 0.00 | 0.00 | 48 | 1012.3 |
| 20260902214527 | 96 | 355 | 0.0 | 2.0 | 0.00 | 0.00 | 0.00 | 45 | 1012.3 |
| 20260902213039 | 98 | 97 | 0.0 | 3.0 | 0.00 | 0.00 | 0.00 | 41 | 1012.5 |
| 20260902211550 | 96 | 317 | 0.0 | 2.0 | 0.00 | 0.00 | 0.00 | 42 | 1012.5 |
| 20260902204513 | 97 | 317 | 0.0 | 2.0 | 0.00 | 0.00 | 0.00 | 43 | 1012.7 |
| 20260902203024 | 95 | 317 | 0.0 | 2.0 | 0.00 | 0.00 | 0.00 | 45 | 1012.9 |
| 20260902201537 | 96 | 317 | 0.0 | 2.0 | 0.00 | 0.00 | 0.00 | 46 | 1013.0 |
| 20260902200047 | 96 | 317 | 0.0 | 2.0 | 0.00 | 0.00 | 0.00 | 45 | 1013.2 |
| 20260902194604 | 96 | 317 | 0.0 | 2.0 | 0.00 | 0.00 | 0.00 | 44 | 1013.4 |
| 20260902193014 | 95 | 316 | 0.0 | 2.0 | 0.00 | 0.00 | 0.00 | 47 | 1013.7 |
| 20260902191524 | 94 | 316 | 0.0 | 2.0 | 0.00 | 0.00 | 0.00 | 48 | 1013.9 |
| 20260902190041 | 96 | 316 | 0.0 | 2.0 | 0.00 | 0.00 | 0.00 | 46 | 1014.0 |
| 20260902184556 | 95 | 316 | 0.0 | 2.0 | 0.00 | 0.00 | 0.00 | 46 | 1014.2 |
| 20260902183001 | 96 | 316 | 0.0 | 3.0 | 0.00 | 0.00 | 0.00 | 44 | 1014.4 |
| 20260902181513 | 96 | 287 | 0.0 | 3.0 | 0.00 | 0.00 | 0.00 | 45 | 1014.5 |
| 20260902180029 | 95 | 302 | 0.0 | 2.0 | 0.00 | 0.00 | 0.00 | 48 | 1014.7 |
| 20260902174536 | 94 | 327 | 0.0 | 2.0 | 0.00 | 0.00 | 0.00 | 49 | 1015.0 |
| 20260902173050 | 93 | 324 | 0.0 | 2.0 | 0.00 | 0.00 | 0.00 | 51 | 1015.1 |
| 20260902171609 | 93 | 324 | 1.0 | 3.0 | 0.00 | 0.00 | 0.00 | 51 | 1015.3 |
| 20260902170009 | 92 | 317 | 0.0 | 2.0 | 0.00 | 0.00 | 0.00 | 53 | 1015.6 |
| 20260902164523 | 91 | 317 | 0.0 | 2.0 | 0.00 | 0.00 | 0.00 | 58 | 1015.8 |
| 20260902163034 | 90 | 317 | 0.0 | 2.0 | 0.00 | 0.00 | 0.00 | 60 | 1016.0 |
| 20260902161545 | 90 | 317 | 0.0 | 2.0 | 0.00 | 0.00 | 0.00 | 61 | 1016.1 |
| 20260902160117 | 89 | 317 | 0.0 | 3.0 | 0.00 | 0.00 | 0.00 | 61 | 1016.1 |
| 20260902154509 | 89 | 317 | 0.0 | 2.0 | 0.00 | 0.00 | 0.00 | 62 | 1016.2 |
| 20260902153021 | 88 | 317 | 0.0 | 2.0 | 0.00 | 0.00 | 0.00 | 65 | 1016.2 |
| 20260902151534 | 87 | 317 | 0.0 | 2.0 | 0.00 | 0.00 | 0.00 | 68 | 1016.2 |
| 20260902150045 | 85 | 317 | 0.0 | 1.0 | 0.00 | 0.00 | 0.00 | 70 | 1016.3 |
| 20260902144556 | 83 | 317 | 0.0 | 2.0 | 0.00 | 0.00 | 0.00 | 75 | 1016.3 |
| 20260902143005 | 81 | 317 | 0.0 | 2.0 | 0.00 | 0.00 | 0.00 | 78 | 1016.2 |
| 20260902141515 | 79 | 317 | 0.0 | 2.0 | 0.00 | 0.00 | 0.00 | 83 | 1016.2 |
| 20260902140035 | 78 | 317 | 0.0 | 2.0 | 0.00 | 0.00 | 0.00 | 86 | 1016.3 |
| 20260902134541 | 77 | 317 | 0.0 | 0.0 | 0.00 | 0.00 | 0.00 | 88 | 1016.3 |
| 20260902133105 | 76 | 318 | 0.0 | 0.0 | 0.00 | 0.00 | 0.00 | 88 | 1016.3 |
| 20260902131607 | 75 | 318 | 0.0 | 0.0 | 0.00 | 0.00 | 0.00 | 88 | 1016.2 |
| 20260902130013 | 75 | 318 | 0.0 | 0.0 | 0.00 | 0.00 | 0.00 | 87 | 1016.2 |